• în Republica Moldova
  • Lista ţărilor
  • Pe 7 zile
  • Temperatura apei
  • Hartă satelitară
  • Meteo pe hartă
  • Widget-uri
  • user-avatar
    Intrare

    Meteo pe oră la Uige

    Astăzi, 23 Februarie, Joi

    Timp Temperatura Precipitaţii Vânt Presiune Umiditate
    00:00 +22°C° 0 mm 1 m/s 691 mmHg 96%
    01:00 +22°C° 0 mm 1 m/s 691 mmHg 98%
    02:00 +22°C° 0 mm 1 m/s 691 mmHg 97%
    03:00 +22°C° 0 mm 1 m/s 691 mmHg 97%
    04:00 +22°C° 0 mm 1 m/s 691 mmHg 97%
    05:00 +22°C° 0 mm 1 m/s 691 mmHg 95%
    06:00 +22°C° 0 mm 1 m/s 691 mmHg 93%
    07:00 +23°C° 0 mm 1 m/s 692 mmHg 91%
    08:00 +25°C° 0 mm 1 m/s 692 mmHg 82%
    09:00 +27°C° 0 mm 1 m/s 692 mmHg 74%
    10:00 +28°C° 0 mm 1 m/s 692 mmHg 65%
    11:00 +30°C° 0,3 mm 1 m/s 692 mmHg 59%
    12:00 +32°C° 0,3 mm 1 m/s 692 mmHg 53%
    13:00 +33°C° 0 mm 1 m/s 692 mmHg 48%
    14:00 +32°C° 0,7 mm 1 m/s 691 mmHg 52%
    15:00 +31°C° 0,7 mm 1 m/s 690 mmHg 56%
    16:00 +31°C° 0,7 mm 1 m/s 689 mmHg 60%
    17:00 +28°C° 0,1 mm 1 m/s 689 mmHg 67%
    18:00 +26°C° 0,1 mm 1 m/s 689 mmHg 74%
    19:00 +24°C° 0,1 mm 1 m/s 689 mmHg 81%
    20:00 +23°C° 0,2 mm 1 m/s 690 mmHg 83%
    21:00 +23°C° 0,2 mm 1 m/s 690 mmHg 85%
    22:00 +22°C° 0,2 mm 1 m/s 690 mmHg 87%
    23:00 +22°C° 1 mm 1 m/s 690 mmHg 90%

    Mâine, 24 Februarie, Vineri

    Timp Temperatura Precipitaţii Vânt Presiune Umiditate
    00:00 +21°C° 1 mm 1 m/s 690 mmHg 92%
    01:00 +21°C° 1 mm 1 m/s 690 mmHg 95%
    02:00 +20°C° 0 mm 1 m/s 690 mmHg 95%
    03:00 +20°C° 0 mm 1 m/s 690 mmHg 96%
    04:00 +20°C° 0 mm 1 m/s 690 mmHg 96%
    05:00 +21°C° 0 mm 1 m/s 690 mmHg 95%
    06:00 +21°C° 0 mm 1 m/s 690 mmHg 93%
    07:00 +22°C° 0 mm 1 m/s 691 mmHg 92%
    08:00 +25°C° 0 mm 1 m/s 691 mmHg 80%
    09:00 +26°C° 0 mm 0 m/s 692 mmHg 68%
    10:00 +29°C° 0 mm 0 m/s 693 mmHg 56%
    11:00 +32°C° 0,2 mm 1 m/s 692 mmHg 53%
    12:00 +33°C° 0,2 mm 1 m/s 692 mmHg 49%
    13:00 +33°C° 0,2 mm 1 m/s 691 mmHg 46%
    14:00 +33°C° 0,5 mm 1 m/s 690 mmHg 50%
    15:00 +32°C° 0,5 mm 1 m/s 690 mmHg 55%
    16:00 +31°C° 0,5 mm 1 m/s 689 mmHg 59%
    17:00 +29°C° 0,2 mm 1 m/s 689 mmHg 66%
    18:00 +27°C° 0,2 mm 2 m/s 689 mmHg 73%
    19:00 +24°C° 0,2 mm 2 m/s 689 mmHg 80%
    20:00 +24°C° 0 mm 2 m/s 690 mmHg 85%
    21:00 +23°C° 0 mm 2 m/s 691 mmHg 89%
    22:00 +21°C° 0 mm 2 m/s 691 mmHg 94%
    23:00 +21°C° 0,1 mm 2 m/s 691 mmHg 95%

    Poimâine, 25 Februarie, Sâmbătă

    Timp Temperatura Precipitaţii Vânt Presiune Umiditate
    00:00 +21°C° 0,1 mm 2 m/s 691 mmHg 97%
    01:00 +22°C° 0,1 mm 1 m/s 691 mmHg 98%
    02:00 +21°C° 0 mm 2 m/s 691 mmHg 97%
    03:00 +21°C° 0 mm 2 m/s 691 mmHg 96%
    04:00 +21°C° 0 mm 2 m/s 690 mmHg 95%
    05:00 +21°C° 0 mm 2 m/s 691 mmHg 95%
    06:00 +21°C° 0 mm 2 m/s 691 mmHg 94%
    07:00 +22°C° 0 mm 1 m/s 691 mmHg 94%
    08:00 +24°C° 0 mm 1 m/s 692 mmHg 82%
    09:00 +26°C° 0 mm 1 m/s 692 mmHg 70%
    10:00 +29°C° 0 mm 1 m/s 693 mmHg 58%
    11:00 +30°C° 0 mm 2 m/s 692 mmHg 52%
    12:00 +32°C° 0 mm 2 m/s 692 mmHg 46%
    13:00 +34°C° 0 mm 2 m/s 691 mmHg 40%
    14:00 +34°C° 0,1 mm 2 m/s 690 mmHg 42%
    15:00 +32°C° 0,1 mm 2 m/s 690 mmHg 44%
    16:00 +32°C° 0,1 mm 2 m/s 689 mmHg 47%
    17:00 +29°C° 0,1 mm 2 m/s 689 mmHg 56%
    18:00 +27°C° 0,1 mm 2 m/s 689 mmHg 65%
    19:00 +24°C° 0,1 mm 1 m/s 689 mmHg 74%
    20:00 +24°C° 0 mm 1 m/s 690 mmHg 78%
    21:00 +23°C° 0 mm 1 m/s 690 mmHg 81%
    22:00 +23°C° 0 mm 1 m/s 691 mmHg 84%
    23:00 +22°C° 0 mm 1 m/s 690 mmHg 88%

    26 Februarie, Duminică

    Timp Temperatura Precipitaţii Vânt Presiune Umiditate
    00:00 +22°C° 0 mm 1 m/s 690 mmHg 92%
    01:00 +21°C° 0 mm 1 m/s 690 mmHg 96%
    02:00 +21°C° 0 mm 1 m/s 690 mmHg 96%
    03:00 +21°C° 0 mm 1 m/s 690 mmHg 96%
    04:00 +21°C° 0 mm 1 m/s 689 mmHg 96%
    05:00 +21°C° 0 mm 1 m/s 690 mmHg 94%
    06:00 +22°C° 0 mm 1 m/s 690 mmHg 93%
    07:00 +22°C° 0 mm 1 m/s 691 mmHg 91%
    08:00 +25°C° 0 mm 1 m/s 691 mmHg 77%
    09:00 +27°C° 0 mm 1 m/s 692 mmHg 62%
    10:00 +30°C° 0 mm 1 m/s 693 mmHg 47%
    11:00 +31°C° 0 mm 1 m/s 692 mmHg 44%
    12:00 +32°C° 0 mm 2 m/s 691 mmHg 40%
    13:00 +34°C° 0 mm 2 m/s 690 mmHg 36%
    14:00 +34°C° 0,1 mm 2 m/s 690 mmHg 39%
    15:00 +32°C° 0,1 mm 2 m/s 689 mmHg 43%
    16:00 +32°C° 0,1 mm 2 m/s 688 mmHg 46%
    17:00 +29°C° 0,1 mm 2 m/s 688 mmHg 53%
    18:00 +27°C° 0,1 mm 2 m/s 688 mmHg 61%
    19:00 +25°C° 0,1 mm 2 m/s 688 mmHg 69%
    20:00 +24°C° 0 mm 2 m/s 689 mmHg 73%
    21:00 +23°C° 0 mm 1 m/s 689 mmHg 77%
    22:00 +23°C° 0 mm 1 m/s 690 mmHg 81%
    23:00 +22°C° 0 mm 1 m/s 689 mmHg 86%

    27 Februarie, Luni

    Timp Temperatura Precipitaţii Vânt Presiune Umiditate
    00:00 +22°C° 0 mm 1 m/s 689 mmHg 90%
    01:00 +21°C° 0 mm 1 m/s 688 mmHg 94%
    02:00 +21°C° 0 mm 1 m/s 688 mmHg 95%
    03:00 +21°C° 0 mm 1 m/s 688 mmHg 96%
    04:00 +21°C° 0 mm 1 m/s 688 mmHg 97%
    05:00 +21°C° 0 mm 1 m/s 689 mmHg 95%
    06:00 +21°C° 0 mm 1 m/s 689 mmHg 92%
    07:00 +21°C° 0 mm 1 m/s 689 mmHg 90%
    08:00 +24°C° 0 mm 1 m/s 690 mmHg 78%
    09:00 +26°C° 0 mm 1 m/s 690 mmHg 66%
    10:00 +28°C° 0 mm 1 m/s 691 mmHg 54%
    11:00 +29°C° 0 mm 1 m/s 690 mmHg 48%
    12:00 +31°C° 0 mm 2 m/s 690 mmHg 42%
    13:00 +32°C° 0 mm 2 m/s 689 mmHg 35%
    14:00 +32°C° 0 mm 2 m/s 689 mmHg 37%
    15:00 +32°C° 0 mm 2 m/s 688 mmHg 39%
    16:00 +32°C° 0 mm 2 m/s 688 mmHg 41%
    17:00 +29°C° 0 mm 2 m/s 688 mmHg 49%
    18:00 +27°C° 0 mm 2 m/s 688 mmHg 57%
    19:00 +24°C° 0 mm 2 m/s 688 mmHg 65%
    20:00 +23°C° 0 mm 1 m/s 688 mmHg 70%
    21:00 +23°C° 0 mm 1 m/s 689 mmHg 74%
    22:00 +22°C° 0 mm 1 m/s 689 mmHg 79%
    23:00 +21°C° 0 mm 1 m/s 689 mmHg 84%

    28 Februarie, Marţi

    Timp Temperatura Precipitaţii Vânt Presiune Umiditate
    00:00 +21°C° 0 mm 1 m/s 689 mmHg 90%
    01:00 +20°C° 0 mm 1 m/s 688 mmHg 95%
    02:00 +20°C° 0 mm 1 m/s 688 mmHg 96%
    03:00 +20°C° 0 mm 1 m/s 688 mmHg 96%
    04:00 +20°C° 0 mm 1 m/s 688 mmHg 97%
    05:00 +20°C° 0 mm 1 m/s 689 mmHg 95%
    06:00 +20°C° 0 mm 1 m/s 689 mmHg 94%
    07:00 +21°C° 0 mm 1 m/s 690 mmHg 92%
    08:00 +23°C° 0 mm 1 m/s 690 mmHg 79%
    09:00 +26°C° 0 mm 1 m/s 691 mmHg 65%
    10:00 +29°C° 0 mm 1 m/s 691 mmHg 52%
    11:00 +30°C° 0 mm 2 m/s 691 mmHg 46%
    12:00 +32°C° 0 mm 2 m/s 690 mmHg 41%
    13:00 +34°C° 0 mm 2 m/s 690 mmHg 35%
    14:00 +34°C° 0 mm 2 m/s 689 mmHg 37%
    15:00 +34°C° 0 mm 2 m/s 689 mmHg 39%
    16:00 +32°C° 0 mm 2 m/s 689 mmHg 40%
    17:00 +30°C° 0 mm 2 m/s 689 mmHg 50%
    18:00 +27°C° 0 mm 2 m/s 689 mmHg 59%
    19:00 +24°C° 0 mm 2 m/s 689 mmHg 68%
    20:00 +23°C° 0 mm 1 m/s 689 mmHg 73%
    21:00 +23°C° 0 mm 1 m/s 690 mmHg 79%
    22:00 +22°C° 0 mm 1 m/s 690 mmHg 85%
    23:00 +21°C° 0 mm 1 m/s 690 mmHg 88%
    Arată mai mult